Regional Weather Roundup
Issued by NWS

Home | Current Version | Previous Version | Text Only | Print | Product List | Glossary On
Versions: 1 2 3 4 5 6 7 8 9 10 11 12 13 14 15 16 17 18 19 20 21 22 23 24 25 26 27 28 29 30 31 32 33 34 35 36 37 38 39 40 41 42 43 44 45 46 47 48 49 50
000
ASUS45 KPSR 180010
RWRAZ

ARIZONA REGIONAL HOURLY WEATHER ROUNDUP
NATIONAL WEATHER SERVICE PHOENIX AZ
500 PM MST WED DEC 17 2014

NOTE: FAIR INDICATES FEW OR NO CLOUDS BELOW 12,000 FEET WITH NO
SIGNIFICANT WEATHER AND/OR OBSTRUCTIONS TO VISIBILITY.

AZZ001>003-036-180100-
NORTHWEST ARIZONA

CITY           SKY/WX    TMP DP  RH WIND       PRES   REMARKS
BULLHEAD CITY  CLOUDY    55  48  76 SW3       30.06S
KINGMAN        CLOUDY    44  41  89 SW6       30.04S
6HR MIN TEMP:  44; 6HR MAX TEMP:  48; 6HR PCP:  0.01;

$$

AZZ004>008-015-016-018-180100-
NORTH CENTRAL ARIZONA

CITY           SKY/WX    TMP DP  RH WIND       PRES   REMARKS
GRAND CANYON   FLURRIES  33  32  96 CALM      30.02R
6HR MIN TEMP:  32; 6HR MAX TEMP:  35; 6HR PCP:  0.04;

PRESCOTT       CLOUDY    39  34  82 S5        30.06R
6HR MIN TEMP:  39; 6HR MAX TEMP:  43; 6HR PCP: TRACE;

FLAGSTAFF      MOCLDY    32  28  85 SW7       30.03R WCI  26
6HR MIN TEMP:  31; 6HR MAX TEMP:  34; 6HR PCP:  0.01;

PAYSON         CLOUDY    39  37  93 CALM      30.08S
PAGE           CLOUDY    41  35  79 CALM      30.01R
6HR MIN TEMP:  40; 6HR MAX TEMP:  42; 6HR PCP:  0.02;

$$

AZZ009>014-017-180100-
NORTHEAST ARIZONA

CITY           SKY/WX    TMP DP  RH WIND       PRES   REMARKS
WINSLOW        MOCLDY    42  34  73 SW10      30.03R
6HR MIN TEMP:  39; 6HR MAX TEMP:  46;

SAINT JOHNS    MOCLDY    40  31  70 SW16      30.03R WCI  31
6HR MIN TEMP:  37; 6HR MAX TEMP:  45; 6HR PCP:  0.04;

WINDOW ROCK    LGT SNOW  34  29  82 W8        30.02R WCI  27
6HR MIN TEMP:  34; 6HR MAX TEMP:  38; 6HR PCP:  0.01;

SHOW LOW       MOCLDY    32  28  86 SW9       30.07S WCI  24
$$

AZZ023-180100-
GREATER PHOENIX AREA

CITY           SKY/WX    TMP DP  RH WIND       PRES   REMARKS
PHOENIX        MOCLDY    59  44  57 NW3       30.05R
6HR MIN TEMP:  57; 6HR MAX TEMP:  61; 6HR PCP: TRACE;

BUCKEYE          N/A     57  46  67 NW6       30.07S
GLENDALE       MOCLDY    57  46  67 W6        30.08R
LUKE AFB       MOCLDY    57  49  74 N9        30.06R
6HR MIN TEMP:  55; 6HR MAX TEMP:  59; 6HR PCP: TRACE;

DEER VALLEY    CLOUDY    53  45  74 NW12      30.06R
6HR MIN TEMP:  52; 6HR MAX TEMP:  56; 6HR PCP: TRACE;

SCOTTSDALE     MOCLDY    56  46  69 CALM      30.07S
6HR MIN TEMP:  52; 6HR MAX TEMP:  56; 6HR PCP:  0.06;

MESA-GATEWAY   MOCLDY    54  48  82 CALM      30.09R
CHANDLER       MOCLDY    57  48  72 VRB6      30.07R
$$

AZZ027-028-180100-
SOUTHWEST MARICOPA COUNTY AND PINAL COUNTY

CITY           SKY/WX    TMP DP  RH WIND       PRES   REMARKS
CASA GRANDE    CLOUDY    55  46  71 CALM      30.07S
6HR MIN TEMP:  54; 6HR MAX TEMP:  57;

GILA BEND      LGT RAIN  57  49  74 CALM      30.08R
6HR MIN TEMP:  57; 6HR MAX TEMP:  61; 6HR PCP:  0.02;

$$

AZZ503-504-507>509-180100-
SOUTHEAST ARIZONA

CITY           SKY/WX    TMP DP  RH WIND       PRES   REMARKS
TUCSON         HVY RAIN  51  48  89 N13       30.10R FOG
6HR MIN TEMP:  52; 6HR MAX TEMP:  57; 6HR PCP:  0.05;

DAVIS-MONTHAN  HVY RAIN  51  49  92 NW10      30.07R FOG
6HR MIN TEMP:  51; 6HR MAX TEMP:  56; 6HR PCP:  0.22;

RYAN FIELD       N/A     54  54 100 NW16      30.10R
NOGALES        LGT RAIN  51  42  71 S12       30.09R
6HR MIN TEMP:  48; 6HR MAX TEMP:  56; 6HR PCP:  0.01;

SIERRA VISTA   MOCLDY    48  37  66 SW20G29   30.08R
                                      6HR PCP: TRACE;

DOUGLAS        PTCLDY    49  39  68 SW10      30.09R
6HR MIN TEMP:  48; 6HR MAX TEMP:  56; 6HR PCP:  0.04;

SAFFORD        LGT RAIN  48  45  89 W5        30.06S
6HR MIN TEMP:  48; 6HR MAX TEMP:  56; 6HR PCP:  0.10;

$$

AZZ020-021-025-026-031-180100-
SOUTHWEST ARIZONA

CITY           SKY/WX    TMP DP  RH WIND       PRES   REMARKS
YUMA           PTCLDY   N/A  48 N/A S6        30.04S

$$

CAZ031-033-041-043-047-048-061-180100-
SOUTHERN CALIFORNIA

CITY           SKY/WX    TMP DP  RH WIND       PRES   REMARKS
DOWNTOWN L.A.  CLOUDY    61  45  55 CALM      30.05S
6HR MIN TEMP:  58; 6HR MAX TEMP:  65;

L.A. AIRPORT   CLOUDY    60  46  59 W17       30.06S
6HR MIN TEMP:  58; 6HR MAX TEMP:  61;

SAN DIEGO      MOCLDY    63  46  54 NW13G20   30.11R
6HR MIN TEMP:  61; 6HR MAX TEMP:  66;

BURBANK        CLOUDY    59  44  57 CALM      30.05R
6HR MIN TEMP:  56; 6HR MAX TEMP:  62;

ONTARIO        MOCLDY    58  45  62 NW6       30.04F
6HR MIN TEMP:  53; 6HR MAX TEMP:  60;

RIVERSIDE      MOCLDY    58  46  64 CALM      30.05S
6HR MIN TEMP:  56; 6HR MAX TEMP:  61;

PALM SPRINGS   MOCLDY    58  47  66 SW5       30.06R
6HR MIN TEMP:  55; 6HR MAX TEMP:  60;

EL CENTRO NAS  MOCLDY    62  53  72 N6        30.04R
6HR MIN TEMP:  54; 6HR MAX TEMP:  64;

IMPERIAL       CLOUDY    62  51  67 E5        30.04R
6HR MIN TEMP:  54; 6HR MAX TEMP:  64;

BLYTHE         PTCLDY    58  50  75 CALM      30.04R
6HR MIN TEMP:  52; 6HR MAX TEMP:  60; 6HR PCP:  0.34;

NEEDLES        PTCLDY    57  45  64 SW8       30.04R
6HR MIN TEMP:  54; 6HR MAX TEMP:  59; 6HR PCP:  0.02;

$$

NVZ020-UTZ003-180100-
SOUTHERN NEVADA-UTAH

CITY           SKY/WX    TMP DP  RH WIND       PRES   REMARKS
LAS VEGAS      CLOUDY    53  41  63 SE5       29.98R
6HR MIN TEMP:  50; 6HR MAX TEMP:  54;

SALT LAKE CITY MOCLDY    37  30  75 W5        29.99R WCI  33
6HR MIN TEMP:  37; 6HR MAX TEMP:  41;

$$

NMZ009-TXZ055-180100-
NEW MEXICO-WEST TEXAS

CITY           SKY/WX    TMP DP  RH WIND       PRES   REMARKS
ALBUQUERQUE    LGT RAIN  40  38  93 S12       30.00R WCI  33
6HR MIN TEMP:  38; 6HR MAX TEMP:  43; 6HR PCP:  0.02;

EL PASO        PTCLDY    58  31  35 W22G29    30.03R
6HR MIN TEMP:  57; 6HR MAX TEMP:  62;

$$


........................KEY........................
SKY/WX - SKY CONDITION/WEATHER
TMP    - TEMPERATURE IN FAHRENHEIT
DP     - DEW POINT IN FAHRENHEIT
RH     - RELATIVE HUMIDITY IN PERCENT
WIND   - DIRECTION AND SPEED IN MILES PER HOUR (MPH)
VRB    - VARIABLE WIND DIRECTION
PRES   - MEAN SEA LEVEL PRESSURE IN INCHES OF MERCURY
         F - FALLING PRESSURE   R - RISING PRESSURE
         S - STEADY PRESSURE
VSB    - VISIBILITY IN MILES
HX     - HEAT INDEX IN FAHRENHEIT
WCI    - WIND CHILL INDEX IN FAHRENHEIT
TC     - TEMPERATURE IN CELSIUS WHICH IS ALSO KNOWN AS
         TEMPERATURE IN CENTIGRADE
AFB    - AIR FORCE BASE
         LUKE AFB IS LUKE AIR FORCE BASE
         DAVIS-MONTHAN IS DAVIS-MONTHAN AIR FORCE BASE
NAS    - NAVAL AIR STATION
         EL CENTRO NAS IS EL CENTRO NAVAL AIR STATION
N/A    - NOT AVAILABLE



USA.gov is the U.S. government's official web portal to all federal, state and local government web resources and services.